Flight Information

DEPARTURE
EUGENE, OR
Elevation:
373
Runways:
16R/34L - 8009x150 - ASPH-G
16L/34R - 6000x150 - ASPH-G
ATIS:
125.225 541-607-4699
Clearance Delivery:
121.7
Ground:
121.7
Tower:
EUGENE TOWER 118.9 RY 16R/34L 124.15 RY 16L/34R
DESTINATION
,
Elevation:
TPA:
1000 (est.)


6788.9 NM66° True-18° Var47° HDG

Flight Plan:
(click to file on line)

1. Type
2. Aircraft Identification
3. Aircraft Type / Special Equipment
4. True Airspeed
kts
5. Departure Airport
(ICAO code)
6. Arriving Airport
(ICAO code)
7. Cruising Altitude
ft
8. Alternate Airport
(ICAO code)
9. Route of Flight
10. Remarks


00:00:00 Departure ATIS: Destination ATIS:

Clearance Limit:
Route:
Altitude: Expect in minutes
Frequency:
Transponder: (7500 Hijack / 7600 Lost Comms / 7700 Emergency)


KEUG 261254Z 00000KT 10SM CLR 12/11 A2996 RMK AO2 SLP143 T01170106
Time: 2022-06-26T12:54:00Z
1656250526
Winds: calm
Visibility: 10.0 sm
Clouds (AGL): CLR
Temperature: 11.7 C
Dew Point: 10.6 C
Pressure: 29.958662 in Hgbr


Notes:

Data extracted from FAA Digital Chart Supplement. Effective: 0901Z Thursday, 27 JAN 2022 to 0900z Thursday, 24 MAR 2022
Current ATIS data is provided courtisy of PilotEdge.